CW6338 Weather Reports


Display with metric or nautical units.
time (UTC)temp
F
wind
direction
speed
MPH
gust
MPH
rain 1hr
in
rain 24hr
in
rain mn
in
humidity
%
barometer
mb
20260902212717 94 203 4.0 8.0 0.00 0.00 0.00 60 1014.5
20260902211716 94 225 4.0 6.0 0.00 0.00 0.00 59 1014.6
20260902210736 94 135 4.0 7.0 0.00 0.00 0.00 60 1014.7
20260902205718 94 158 5.0 10.0 0.00 0.00 0.00 60 1014.7
20260902204716 94 158 3.0 5.0 0.00 0.00 0.00 63 1014.8
20260902203716 94 158 6.0 8.0 0.00 0.00 0.00 61 1014.9
20260902202716 94 158 5.0 8.0 0.00 0.00 0.00 61 1015.0
20260902201716 95 180 5.0 8.0 0.00 0.00 0.00 61 1015.0
20260902200716 94 180 5.0 8.0 0.00 0.00 0.00 62 1015.0
20260902195716 94 203 4.0 6.0 0.00 0.00 0.00 62 1015.2
20260902194716 93 180 6.0 9.0 0.00 0.00 0.00 60 1015.2
20260902193716 93 158 6.0 10.0 0.00 0.00 0.00 61 1015.3
20260902192716 93 203 4.0 7.0 0.00 0.00 0.00 62 1015.5
20260902191716 93 203 4.0 6.0 0.00 0.00 0.00 61 1015.4
20260902185716 92 158 3.0 5.0 0.00 0.00 0.00 65 1015.7
20260902184715 92 158 3.0 7.0 0.00 0.00 0.00 64 1015.8
20260902183716 92 203 6.0 8.0 0.00 0.00 0.00 62 1015.9
20260902182716 92 180 7.0 10.0 0.00 0.00 0.00 63 1016.0
20260902181716 91 225 5.0 9.0 0.00 0.00 0.00 63 1016.0
20260902180716 92 180 2.0 9.0 0.00 0.00 0.00 61 1016.1
20260902175716 92 248 6.0 9.0 0.00 0.00 0.00 60 1016.2
20260902174716 92 180 4.0 6.0 0.00 0.00 0.00 61 1016.3
20260902173716 91 225 3.0 6.0 0.00 0.00 0.00 62 1016.4
20260902172715 91 158 4.0 7.0 0.00 0.00 0.00 63 1016.4
20260902171715 90 180 5.0 8.0 0.00 0.00 0.00 63 1016.5
20260902170735 90 158 1.0 3.0 0.00 0.00 0.00 64 1016.6
20260902165735 90 203 7.0 10.0 0.00 0.00 0.00 63 1016.7
20260902164715 89 203 4.0 6.0 0.00 0.00 0.00 65 1016.7
20260902163735 89 180 3.0 6.0 0.00 0.00 0.00 64 1016.8
20260902162715 88 203 3.0 6.0 0.00 0.00 0.00 67 1016.9
20260902161715 88 203 5.0 6.0 0.00 0.00 0.00 65 1016.9
20260902160715 88 225 3.0 5.0 0.00 0.00 0.00 65 1017.0
20260902155717 87 225 1.0 2.0 0.00 0.00 0.00 67 1017.0
20260902154717 87 248 3.0 7.0 0.00 0.00 0.00 66 1017.0
20260902153717 86 203 3.0 5.0 0.00 0.00 0.00 69 1016.8
20260902152717 85 203 3.0 6.0 0.00 0.00 0.00 71 1016.7
20260902151717 85 293 4.0 8.0 0.00 0.00 0.00 70 1016.8
20260902150717 84 203 2.0 4.0 0.00 0.00 0.00 72 1016.4
20260902145737 84 293 6.0 9.0 0.00 0.00 0.00 73 1016.8
20260902144717 83 180 4.0 7.0 0.00 0.00 0.00 74 1016.5
20260902143717 82 270 5.0 7.0 0.00 0.00 0.00 75 1016.6
20260902142717 82 293 9.0 11.0 0.00 0.00 0.00 76 1016.8
20260902141737 81 203 4.0 8.0 0.00 0.00 0.00 77 1016.2
20260902140717 81 180 7.0 9.0 0.00 0.00 0.00 76 1016.1
20260902135717 80 225 5.0 7.0 0.00 0.00 0.00 77 1016.1
20260902134717 79 225 3.0 7.0 0.00 0.00 0.00 78 1016.1
20260902133717 79 203 4.0 8.0 0.00 0.00 0.00 78 1016.1
20260902132717 79 203 3.0 5.0 0.00 0.00 0.00 79 1016.2
20260902131717 78 180 4.0 8.0 0.00 0.00 0.00 79 1016.2
20260902130737 78 203 4.0 7.0 0.00 0.00 0.00 80 1016.2
20260902125737 77 180 5.0 10.0 0.00 0.00 0.00 80 1016.2
20260902124737 77 180 3.0 4.0 0.00 0.00 0.00 81 1016.1
20260902123717 76 158 4.0 7.0 0.00 0.00 0.00 82 1016.2
20260902122719 75 135 2.0 4.0 0.00 0.00 0.00 82 1016.2
20260902121717 75 203 3.0 5.0 0.00 0.00 0.00 82 1016.0
20260902120737 75 158 2.0 3.0 0.00 0.00 0.00 82 1016.0
20260902115717 74 135 4.0 7.0 0.00 0.00 0.00 82 1015.9
20260902114716 74 180 3.0 4.0 0.00 0.00 0.00 82 1016.0
20260902113757 75 135 4.0 6.0 0.00 0.00 0.00 82 1015.9
20260902112736 74 158 3.0 5.0 0.00 0.00 0.00 82 1016.0
20260902111717 74 203 2.0 6.0 0.00 0.00 0.00 82 1016.0
20260902110716 74 158 3.0 5.0 0.00 0.00 0.00 83 1016.0
20260902105717 74 135 2.0 6.0 0.00 0.00 0.00 83 1015.9
20260902104756 74 158 2.0 5.0 0.00 0.00 0.00 83 1015.9
20260902103716 74 158 3.0 6.0 0.00 0.00 0.00 82 1015.9
20260902102716 75 135 2.0 4.0 0.00 0.00 0.00 82 1016.0
20260902101716 75 0.0 1.0 0.00 0.00 0.00 81 1016.1
20260902100716 75 0.0 2.0 0.00 0.00 0.00 81 1016.1
20260902095716 75 248 2.0 3.0 0.00 0.00 0.00 81 1016.2
20260902094716 75 225 1.0 2.0 0.00 0.00 0.00 81 1016.1
20260902093716 75 203 1.0 2.0 0.00 0.00 0.00 81 1016.0
20260902092716 75 180 3.0 5.0 0.00 0.00 0.00 81 1015.9
20260902091716 75 180 2.0 3.0 0.00 0.00 0.00 81 1015.8
20260902090716 75 158 1.0 2.0 0.00 0.00 0.00 81 1015.8
20260902085716 76 0.0 1.0 0.00 0.00 0.00 80 1015.8
20260902084716 76 158 2.0 4.0 0.00 0.00 0.00 80 1015.6
20260902083736 76 225 3.0 4.0 0.00 0.00 0.00 80 1015.6
20260902082716 76 180 3.0 7.0 0.00 0.00 0.00 80 1015.5
20260902081716 76 158 3.0 4.0 0.00 0.00 0.00 80 1015.4
20260902080716 76 180 2.0 5.0 0.00 0.00 0.00 80 1015.4
20260902075718 76 180 2.0 4.0 0.00 0.00 0.00 79 1015.2
20260902074716 76 158 2.0 3.0 0.00 0.00 0.00 79 1015.3
20260902073716 77 158 4.0 6.0 0.00 0.00 0.00 79 1015.4
20260902072716 77 158 4.0 6.0 0.00 0.00 0.00 79 1015.4
20260902071716 77 180 4.0 6.0 0.00 0.00 0.00 78 1015.4
20260902070716 77 135 4.0 5.0 0.00 0.00 0.00 77 1015.4
20260902065736 78 180 3.0 5.0 0.00 0.00 0.00 77 1015.4
20260902064716 78 158 3.0 5.0 0.00 0.00 0.00 77 1015.6
20260902063716 78 158 4.0 5.0 0.00 0.00 0.00 77 1015.6
20260902062716 78 158 3.0 4.0 0.00 0.00 0.00 78 1015.7
20260902061716 78 158 3.0 5.0 0.00 0.00 0.00 78 1015.8
20260902060736 78 158 3.0 5.0 0.00 0.00 0.00 78 1015.8
20260902055716 78 158 4.0 6.0 0.00 0.00 0.00 78 1015.6
20260902054716 78 158 3.0 5.0 0.00 0.00 0.00 79 1015.7
20260902053716 78 180 2.0 4.0 0.00 0.00 0.00 79 1015.8
20260902052716 78 158 4.0 6.0 0.00 0.00 0.00 79 1015.8
20260902051716 79 180 2.0 4.0 0.00 0.00 0.00 79 1015.9
20260902050715 79 158 4.0 6.0 0.00 0.00 0.00 79 1015.9
20260902045715 79 158 2.0 4.0 0.00 0.00 0.00 78 1015.9
20260902044715 79 158 2.0 4.0 0.00 0.00 0.00 78 1015.9
20260902043715 80 158 4.0 5.0 0.00 0.00 0.00 78 1015.8
20260902042716 80 135 2.0 3.0 0.00 0.00 0.00 78 1015.9
20260902041736 80 158 1.0 2.0 0.00 0.00 0.00 78 1015.8
20260902040715 80 158 2.0 3.0 0.00 0.00 0.00 77 1015.7
20260902035735 80 158 2.0 3.0 0.00 0.00 0.00 77 1015.7
20260902034715 81 158 3.0 5.0 0.00 0.00 0.00 77 1015.8
20260902033715 81 135 3.0 5.0 0.00 0.00 0.00 76 1015.8
20260902032735 81 135 2.0 3.0 0.00 0.00 0.00 76 1015.6
20260902031716 81 135 4.0 6.0 0.00 0.00 0.00 76 1015.6
20260902030715 81 135 3.0 5.0 0.00 0.00 0.00 76 1015.6
20260902025715 82 158 2.0 3.0 0.00 0.00 0.00 76 1015.4
20260902024715 82 158 4.0 5.0 0.00 0.00 0.00 75 1015.4
20260902023715 82 135 2.0 4.0 0.00 0.00 0.00 75 1015.3
20260902022715 82 135 3.0 5.0 0.00 0.00 0.00 75 1015.3
20260902021715 83 158 3.0 4.0 0.00 0.00 0.00 75 1015.3
20260902020718 83 158 3.0 3.0 0.00 0.00 0.00 74 1015.3
20260902015717 83 135 4.0 5.0 0.00 0.00 0.00 74 1015.2
20260902014717 83 135 2.0 4.0 0.00 0.00 0.00 75 1015.2